STARLINK-32491, 62043

Orbit data source: Space-Track

STARLINK-32491, 62043 is a payload satellite owned by SpaceX/Seattle (US) in LEO that was launched on Thu, 21 Nov 2024 UTC via an FALCON 9 launch vehicle from the Air Force Eastern Test Range (AFETR). Payload-class satellites include a variety of spacecraft equipped with specific instruments for various scientific and technological missions. These include communications satellites like Starlink; space stations such as the ISS; scientific satellites like the Hubble; Earth observation satellites from companies like Planet Labs, Umbra, and HawkEye 360; GPS; miniature CubeSats for education and research; and military/defense satellites.

Loading next visibility...
Identifier
62043, 2024-216M
Orbit
LEO
Country
Flag of USUS
Related business
Manufacturer
SpaceX/Seattle
Mission
Operational Commercial Communications
Bus & Motor
STARLINK V2M, Unknown motor
Mass
730 kg wet, ~700 kg dry
Launch date (UTC)
2024-11-21 (2 years ago)
Launch vehicle
FALCON 9
Launch site
Air Force Eastern Test Range (AFETR)
Object type
Payload
Rocket body
Debris
Shape & HBR
Box + 2 Pan, 17.7 m
Radar Cross Section
33.884 m², Large (>1 m²)

Expand to show TLE details & history
Last TLE update: 14 hours ago

TLE from 14 hours ago
0 STARLINK-32491
1 62043U 24216M   26251.21268145  .00016007  00000-0  58977-3 0  9998
2 62043  42.9998 313.0115 0000775 259.3174 100.7590 15.27588237101701
Epoch: 2026-09-08T05:06Z
TLE epoch observation values (Epoch: 2026-09-08T05:06:15.677Z)
Latitude
-0.00004°
Longitude
-110.83619°
Altitude
482.899 km
Speed
7.626 km/s
True Right ascension
20h 52m 02s
True Declination
0° 00' 00"
Sunlit
Object was in full shadow at epoch
Visualization orbit readout
Latitude
Unknown
Longitude
Unknown
Altitude
Unknown
Speed
Unknown
Apparent Right ascension
Unknown
Apparent Declination
Unknown
Sunlit
N/A
Visualization observer readout
Local Sidereal Time
11:39:04
Azimuth
Unknown
Elevation
Unknown
Doppler factor
Unknown
Orbital elements
Apogee altitude
485.502 km
Perigee altitude
484.438 km
Semi-major axis
6,863.107 km
Eccentricity
0.00008
Inclination
42.9998°
RAAN
313.0115°
Arg. of periapsis
259.3174°
True anomaly
100.76772°
Mean anomaly
100.759°
Eccentric anomaly
100.76336°
Mean motion
3.81735 °/min
Orbital period
94.31 mins
BSTAR
0.00058977
Loading maneuver chart data...
Computing Atmospheric mass density...
Loading historical data...
Loading historical data...
Loading historical data...
Loading historical data...
Loading historical data...
Loading historical data...
Loading historical data...

Documentation

Showing up to 5 results
|